User: anonymous   Login
Location: Unspecified
(0.0000°N, 0.0000°E)
Time: 19:16:15
(UTC+00:00)
Language:

STARLINK-35600 - Orbit

View from above orbital plane
View from above orbital plane
View from above satellite
View from above satellite

Ground track
Ground track

The orbit is defined by the following mean orbital elements,

1 66510U          26145.37961492 +.00000000 +00000-0 +82743-3 0 00007
2 66510  43.0000 277.9383 0001846 281.6475  78.4169 15.27591406    03
Epoch (UTC): 25 May 2026 09:06:38
Eccentricity: 0.0001846
inclination: 43.0000°
perigee height: 482 km
apogee height: 484 km
right ascension of ascending node: 277.9383°
argument of perigee: 281.6475°
revolutions per day: 15.27591406
mean anomaly at epoch: 78.4169°

The dashed part of the orbit path shows where the satellite is in the earth's shadow,  

DLR